Regional Weather Roundup
Issued by NWS

Home | Current Version | Previous Version | Graphics & Text | Print | Product List | Glossary Off
Versions: 1 2 3 4 5 6 7 8 9 10 11 12 13 14 15 16 17 18 19 20 21 22 23 24 25 26 27 28 29 30 31 32 33 34 35 36 37 38 39 40 41 42 43 44 45 46 47 48 49 50

000
ASUS43 KTOP 210408
RWRKS

WEATHER ROUNDUP FOR KANSAS
NATIONAL WEATHER SERVICE GOODLAND KS
1100 PM CDT WED AUG 20 2014

NOTE:  "FAIR" INDICATES FEW OR NO CLOUDS BELOW 12,000 FEET WITH NO
SIGNIFICANT WEATHER AND/OR OBSTRUCTIONS TO VISIBILITY.

KSZ001>006-013>018-027>032-041>047-210500-
NORTHWEST KANSAS

CITY           SKY/WX    TMP DP  RH WIND       PRES   REMARKS
GOODLAND       PTCLDY    72  62  71 CALM      29.86R
HAYS           PTCLDY    84  61  45 S16       29.79R
HILL CITY      MOCLDY    87  62  43 S15G21    29.76R
RUSSELL        CLEAR     84  61  45 S15       29.77S
$$

KSZ061>065-074>080-084>089-210500-
SOUTHWEST KANSAS

CITY           SKY/WX    TMP DP  RH WIND       PRES   REMARKS
DODGE CITY     CLEAR     85  58  39 S16       29.84R
ELKHART          N/A     80  58  46 S15         N/A
GARDEN CITY    PTCLDY    82  60  47 S15       29.83R
GREAT BEND     CLEAR     81  63  54 S14       29.81R
LIBERAL        CLEAR     84  57  39 S15       29.87R
PRATT          PTCLDY    82  59  44 S14G24    29.85R
$$

KSZ066>073-081>083-090>101-210500-
SOUTHEAST KANSAS

CITY           SKY/WX    TMP DP  RH WIND       PRES   REMARKS
CHANUTE        CLEAR     81  68  64 S15       29.91R
COFFEYVILLE    CLEAR     82  69  64 S12       29.90R
HUTCHINSON     CLEAR     84  64  50 S17       29.84R
MEDICINE LODGE   N/A     85  62  46 S12G23    29.84R
NEWTON         PTCLDY    81  61  50 S16G23    29.89S
PARSONS        CLEAR     81  68  64 S7        29.92R
WICHITA INTL   PTCLDY    82  65  56 S15       29.85R
WICHITA JABRA  CLEAR     82  66  58 S16       29.86R
WICHITA MCCONL CLEAR     83  66  56 SE20      29.86R
WINFIELD       CLEAR     83  66  56 S15       29.88R
$$

KSZ007>012-019>026-033>040-048>060-102>105-210500-
NORTHEAST KANSAS

CITY           SKY/WX    TMP DP  RH WIND       PRES   REMARKS
CONCORDIA      PTCLDY    83  67  58 S16G26    29.79R
EMPORIA        CLEAR     80  68  66 S18       29.87R
LAWRENCE       PTCLDY    83  67  58 S8        29.87R
MANHATTAN      MOCLDY    86  66  51 S13       29.81R
MARYSVILLE     MOCLDY    82  70  65 S10       29.80S
OLATHE IND     CLEAR     81  67  62 S12       29.90R
OLATHE EXE     CLEAR     79  67  66 S9        29.90R
SALINA         PTCLDY    85  65  51 S17       29.80R
TOPEKA BILLARD PTCLDY    85  68  56 S12G20    29.85R
TOPEKA FORBES  PTCLDY    83  67  58 S13       29.86R
$$



USA.gov is the U.S. government's official web portal to all federal, state and local government web resources and services.